EW4195 Weather Reports


time (UTC)temp
C
wind
direction
speed
KPH
gust
KPH
rain 1hr
cm
rain 24hr
cm
rain mn
cm
humidity
%
barometer
mb
20260905010147 15 269 4.8 12.9 0.00 0.08 0.00 1 1018.3
20260905005112 15 250 4.8 14.5 0.00 0.08 0.00 1 1018.3
20260905004059 15 267 4.8 14.5 0.00 0.08 0.00 1 1018.2
20260905003102 15 264 4.8 11.3 0.00 0.08 0.00 1 1018.2
20260905002120 15 277 4.8 11.3 0.00 0.08 0.00 1 1018.2
20260905001139 15 269 4.8 12.9 0.00 0.08 0.00 1 1018.1
20260905000150 15 259 4.8 12.9 0.00 0.08 0.00 1 1018.0
20260904235132 15 261 6.4 12.9 0.00 0.08 0.00 1 1017.8
20260904234152 15 254 4.8 12.9 0.00 0.08 0.00 1 1017.9
20260904233127 15 250 4.8 14.5 0.00 0.08 0.00 1 1017.8
20260904232106 16 254 4.8 14.5 0.00 0.08 0.00 1 1017.7
20260904231125 16 257 4.8 12.9 0.00 0.08 0.00 1 1017.6
20260904230059 16 277 4.8 12.9 0.00 0.08 0.00 1 1017.5
20260904225106 16 252 4.8 12.9 0.00 0.08 0.08 1 1017.5
20260904222923 16 268 6.4 12.9 0.00 0.08 0.08 1 1017.4
20260904221929 16 261 4.8 12.9 0.00 0.08 0.08 1 1017.4
20260904220954 16 246 4.8 12.9 0.00 0.08 0.08 1 1017.4
20260904215924 16 259 4.8 12.9 0.00 0.08 0.08 1 1017.4
20260904214903 16 252 4.8 16.1 0.00 0.08 0.08 1 1017.3
20260904213833 16 251 4.8 12.9 0.00 0.08 0.08 1 1017.1
20260904212831 16 250 4.8 11.3 0.00 0.08 0.08 1 1017.1
20260904211757 16 248 3.2 8.0 0.00 0.08 0.08 1 1017.1
20260904210742 16 256 3.2 12.9 0.00 0.08 0.08 1 1017.0
20260904205740 17 252 4.8 12.9 0.00 0.08 0.08 1 1016.9
20260904204711 17 266 3.2 8.0 0.00 0.08 0.08 1 1017.0
20260904203639 17 254 3.2 12.9 0.00 0.08 0.08 1 1016.9
20260904202609 17 250 4.8 12.9 0.00 0.08 0.08 1 1016.7
20260904201545 17 269 4.8 11.3 0.00 0.08 0.08 1 1016.7
20260904200521 17 271 3.2 8.0 0.00 0.08 0.08 1 1016.6
20260904195522 17 257 3.2 11.3 0.00 0.08 0.08 1 1016.4
20260904193317 18 285 3.2 11.3 0.00 0.08 0.08 6 1016.2
20260904192306 18 271 4.8 11.3 0.00 0.08 0.08 10 1015.9
20260904191312 18 271 4.8 11.3 0.00 0.08 0.08 12 1015.8
20260904190337 18 260 4.8 14.5 0.00 0.08 0.08 14 1015.5
20260904184218 18 281 6.4 14.5 0.00 0.08 0.08 17 1015.2
20260904183148 19 262 4.8 16.1 0.00 0.08 0.08 19 1015.2
20260904182125 19 264 6.4 16.1 0.00 0.08 0.08 22 1015.2
20260904181126 19 268 4.8 14.5 0.00 0.08 0.08 23 1014.9
20260904180126 19 274 6.4 19.3 0.00 0.08 0.08 24 1014.9
20260904175149 20 267 4.8 19.3 0.00 0.08 0.08 26 1014.8
20260904174147 20 280 6.4 16.1 0.00 0.08 0.08 27 1014.8
20260904173154 20 258 6.4 16.1 0.00 0.08 0.08 28 1014.7
20260904172122 20 284 8.0 16.1 0.00 0.08 0.08 27 1014.4
20260904171127 20 273 4.8 22.5 0.00 0.08 0.08 27 1014.4
20260904170053 20 273 6.4 22.5 0.00 0.08 0.08 25 1014.4
20260904165102 20 278 6.4 17.7 0.00 0.08 0.08 24 1014.2
20260904164037 20 268 8.0 22.5 0.00 0.08 0.08 25 1014.0
20260904163055 20 261 6.4 22.5 0.00 0.08 0.08 25 1014.0
20260904162117 21 282 8.0 25.7 0.00 0.08 0.08 25 1013.8
20260904161125 21 277 8.0 25.7 0.00 0.08 0.08 26 1013.8
20260904160117 21 273 9.7 24.1 0.00 0.08 0.08 26 1013.8
20260904155101 21 263 11.3 24.1 0.00 0.08 0.08 25 1013.8
20260904154120 21 324 6.4 29.0 0.00 0.08 0.08 20 1013.6
20260904153126 21 280 6.4 29.0 0.00 0.08 0.08 21 1013.5
20260904152121 21 265 9.7 24.1 0.00 0.08 0.08 27 1013.5
20260904151125 21 257 4.8 16.1 0.00 0.08 0.08 12 1013.2
20260904150136 21 293 6.4 24.1 0.00 0.08 0.08 16 1013.3
20260904145103 21 244 6.4 24.1 0.00 0.08 0.08 21 1013.3
20260904144125 22 308 8.0 25.7 0.00 0.08 0.08 21 1013.1
20260904143136 22 265 9.7 25.7 0.00 0.08 0.08 21 1013.1
20260904142142 22 275 8.0 29.0 0.00 0.05 0.05 21 1013.2
20260904141111 22 294 9.7 29.0 0.00 0.05 0.05 13 1013.1
20260904140115 22 241 8.0 25.7 0.00 0.05 0.05 6 1012.8
20260904135050 22 296 4.8 22.5 0.00 0.05 0.05 1 1013.0
20260904134103 22 317 6.4 22.5 0.00 0.05 0.05 1 1013.1
20260904133040 22 263 6.4 19.3 0.00 0.05 0.05 1 1012.9
20260904130925 22 298 8.0 25.7 0.00 0.05 0.05 1 1012.6
20260904124802 22 331 9.7 25.7 0.00 0.05 0.05 1 1012.4
20260904123751 22 298 9.7 24.1 0.00 0.05 0.05 1 1012.4
20260904121620 22 281 9.7 20.9 0.00 0.05 0.05 1 1011.8
20260904120605 22 292 6.4 14.5 0.00 0.05 0.05 1 1011.8
20260904115802 22 272 4.8 20.9 0.00 0.05 0.05 1 1011.8
20260904114817 22 293 6.4 19.3 0.00 0.05 0.05 1 1011.6
20260904113827 22 309 6.4 19.3 0.00 0.05 0.05 1 1011.5
20260904112832 21 262 8.0 27.4 0.00 0.05 0.05 1 1011.6
20260904111846 21 271 8.0 29.0 0.00 0.05 0.05 1 1011.5
20260904110903 21 304 8.0 29.0 0.00 0.05 0.05 1 1011.7
20260904105906 21 273 6.4 19.3 0.00 0.05 0.05 1 1011.4
20260904103730 20 267 3.2 16.1 0.00 0.05 0.05 1 1011.0
20260904102720 20 274 1.6 11.3 0.00 0.05 0.05 1 1011.2
20260904101701 20 291 3.2 14.5 0.00 0.05 0.05 1 1011.0
20260904100645 19 286 3.2 14.5 0.00 0.05 0.05 1 1011.1
20260904095641 20 300 3.2 17.7 0.00 0.05 0.05 1 1011.3
20260904094641 20 300 4.8 19.3 0.08 0.05 0.05 1 1011.3
20260904092456 21 300 12.9 30.6 0.00 0.00 0.00 1 1010.8
20260904091426 22 266 14.5 33.8 0.00 0.00 0.00 1 1010.4
20260904090449 22 254 17.7 35.4 0.00 0.00 0.00 1 1010.1
20260904085448 23 241 19.3 35.4 0.00 0.00 0.00 1 1010.1
20260904083342 23 269 19.3 46.7 0.00 0.00 0.00 1 1009.8
20260904081144 22 264 17.7 40.2 0.00 0.00 0.00 1 1009.6
20260904080111 22 292 19.3 48.3 0.00 0.00 0.00 1 1009.7
20260904075052 22 268 19.3 48.3 0.00 0.00 0.00 1 1009.7
20260904074103 22 232 16.1 37.0 0.00 0.00 0.00 1 1009.5
20260904071926 21 256 12.9 41.8 0.00 0.00 0.00 1 1009.8
20260904070902 21 263 19.3 41.8 0.00 0.00 0.00 1 1009.7
20260904064916 21 248 19.3 38.6 0.00 0.00 0.00 1 1009.5
20260904062726 21 239 17.7 33.8 0.00 0.00 0.00 1 1009.6
20260904061737 21 267 17.7 33.8 0.00 0.00 0.00 1 1009.8
20260904060725 21 215 14.5 32.2 0.00 0.00 0.00 1 1009.9
20260904055711 21 250 14.5 32.2 0.00 0.00 0.00 1 1010.1
20260904054653 21 227 12.9 35.4 0.00 0.00 0.00 1 1010.0
20260904053717 21 267 16.1 35.4 0.00 0.00 0.00 1 1010.0
20260904052650 21 232 16.1 33.8 0.00 0.00 0.00 1 1010.0
20260904051625 21 255 14.5 33.8 0.00 0.00 0.00 1 1010.0
20260904050631 21 226 16.1 35.4 0.00 0.00 0.00 1 1010.0
20260904045559 21 259 16.1 35.4 0.00 0.00 0.00 1 1010.1
20260904044617 21 241 14.5 30.6 0.00 0.00 0.00 1 1010.2
20260904043627 21 249 14.5 30.6 0.00 0.00 0.00 1 1010.3
20260904042646 21 254 16.1 30.6 0.00 0.00 0.00 1 1010.1
20260904040507 21 222 16.1 38.6 0.00 0.00 0.00 1 1010.7
20260904035518 21 278 16.1 38.6 0.00 0.00 0.00 1 1011.0
20260904034506 21 267 12.9 30.6 0.00 0.00 0.00 1 1011.1
20260904033454 21 227 14.5 32.2 0.00 0.00 0.00 1 1011.2
20260904032437 21 234 14.5 35.4 0.00 0.00 0.00 1 1011.3
20260904031410 21 208 17.7 35.4 0.00 0.00 0.00 1 1011.4
20260904030346 21 217 16.1 37.0 0.00 0.00 0.00 1 1011.4
20260904025343 21 254 16.1 37.0 0.00 0.00 0.00 1 1011.4
20260904023230 21 249 16.1 38.6 0.00 0.00 0.00 1 1011.7
20260904022241 21 254 17.7 38.6 0.00 0.00 0.00 1 1011.7
20260904021220 21 238 17.7 37.0 0.00 0.00 0.00 1 1011.9
20260904020149 21 223 16.1 41.8 0.00 0.00 0.00 1 1012.0
20260904015148 21 255 17.7 41.8 0.00 0.00 0.00 1 1012.1
20260904013059 20 235 12.9 37.0 0.00 0.00 0.00 1 1012.2
20260904011000 20 205 9.7 25.7 0.00 0.00 0.00 1 1012.5